#timestamp,LO_Frequency,Hit,StdDev 
1623013215.8,286047000.0,N
1623013235.6,286047002.4,Y
1623013255.4,286046999.8,P
1623013275.3,286046999.7,N
1623013295.1,286047002.3,P
1623013315.9,286047000.5,N
1623013335.7,286046998.5,N
1623013355.5,286047001.0,N
1623013375.4,286047000.6,N
1623013395.2,286047000.6,N
1623013415.0,286047000.2,N
1623013416.0,286047000.2,N
1623013435.8,286046998.3,N
1623013455.6,286046998.4,N
1623013475.5,286047000.8,N
1623013495.3,286046998.1,N
1623013515.1,286046998.5,N
1623013535.9,286047000.8,N
1623013555.7,286046999.2,N
1623013575.6,286046998.7,N
1623013595.4,286046998.3,N
1623013615.2,286046999.3,N
1623013635.1,286046998.3,N
1623013636.0,286046998.3,N
1623013655.8,286046998.4,N
1623013675.6,286047000.7,N
1623013695.5,286047000.6,N
1623013715.3,286047000.6,N
1623013735.2,286047000.1,N
1623013755.9,286046998.7,N
1623013775.7,286046998.9,N
1623013795.6,286047001.2,N
1623013815.4,286047000.6,N
1623013835.2,286047000.0,N
1623013855.1,286047001.0,N
1623013856.0,286047001.0,N
1623013875.8,286047000.0,N
1623013895.7,286047000.8,N
1623013915.5,286047001.0,N
1623013935.3,286047000.8,N
1623013955.2,286046999.9,N
1623013975.0,286046999.9,N
1623013975.9,286046999.9,N
1623013995.8,286046998.4,N
1623014015.6,286047001.1,N
1623014035.4,286046999.8,N
1623014055.3,286046999.8,N
1623014075.1,286046998.2,N
1623014095.8,286046999.9,N
1623014115.7,286047002.5,N
1623014135.5,286047002.2,N
1623014155.4,286047002.1,N
1623014175.2,286047000.0,N
1623014195.0,286046999.9,N
1623014195.9,286046999.9,N
1623014215.8,286046998.1,N
1623014235.6,286046998.3,N
1623014255.4,286047001.2,N
1623014275.3,286047002.0,N
1623014295.1,286047002.7,N
1623014315.9,286047002.7,N
1623014335.7,286047001.4,N
1623014355.5,286047001.4,N
1623014375.4,286047002.2,N
1623014395.2,286047002.2,N
1623014415.1,286047001.8,N
1623014416.0,286047001.8,N
1623014435.8,286047002.8,N
1623014455.6,286047001.0,N
1623014475.5,286047000.3,N
1623014495.3,286047002.8,N
1623014515.1,286046998.1,N
1623014535.9,286047000.7,N
1623014555.7,286047000.1,N
1623014575.6,286047001.9,N
1623014595.4,286047002.5,N
1623014615.2,286047001.5,N
1623014635.1,286047004.3,N
1623014636.0,286047004.3,N
1623014655.8,286047002.3,N
1623014675.7,286047001.5,N
1623014695.5,286046999.7,N
1623014715.3,286047001.8,N
1623014735.2,286047000.4,N
1623014755.0,286046999.7,N
1623014755.9,286046999.7,N
1623014775.7,286047002.1,N
1623014795.6,286047004.2,Y
1623014815.4,286047001.0,P
1623014835.3,286047000.8,N
1623014855.1,286047001.0,P
1623014875.8,286047000.6,N
1623014895.7,286046999.7,N
1623014915.5,286047001.5,N
1623014935.4,286047000.9,N
1623014955.2,286047000.3,N
1623014975.0,286047002.2,Y
1623014975.9,286047002.2,P
1623014995.8,286047004.4,P
1623015015.6,286047004.4,N
1623015035.4,286047002.5,N
1623015055.3,286047000.7,N
1623015075.1,286047000.9,N
1623015095.9,286047002.0,N
1623015115.7,286046998.1,N
1623015135.5,286047000.2,N
1623015155.4,286047002.6,N
1623015175.2,286047002.2,N
1623015195.0,286047001.6,N
1623015195.9,286047001.6,N
1623015215.8,286047001.9,N
1623015235.6,286046999.4,N
1623015255.5,286046996.7,N
1623015275.3,286046995.0,N
1623015295.1,286046998.0,N
1623015315.9,286046995.3,N
1623015335.7,286046995.5,N
1623015355.5,286046996.2,N
1623015375.4,286046993.4,N
1623015395.2,286046993.6,N
1623015415.1,286046993.5,N
1623015416.0,286046993.5,N
1623015435.8,286046993.7,N
1623015455.6,286046993.6,N
1623015475.5,286046992.1,N
1623015495.3,286046992.1,N
1623015515.2,286046990.6,N
1623015535.9,286046990.2,N
1623015555.7,286046993.6,N
1623015575.6,286046994.2,N
1623015595.4,286046993.7,N
1623015615.2,286046994.0,N
1623015635.1,286046994.5,N
1623015636.0,286046994.5,N
1623015655.8,286046994.6,N
1623015675.7,286046992.2,N
1623015695.5,286046991.9,N
1623015715.3,286046992.2,N
1623015735.2,286046992.8,N
1623015755.9,286046991.9,N
1623015775.7,286046992.2,Y
1623015795.6,286046998.6,P
1623015815.4,286046997.2,N
1623015835.3,286046999.5,N
1623015855.1,286046997.3,N
1623015856.0,286046997.3,N
1623015875.8,286046997.4,N
1623015895.7,286046997.2,N
1623015915.5,286046997.4,N
1623015935.4,286046995.0,Y
1623015955.2,286046999.4,P
1623015975.0,286046997.0,N
1623015975.9,286046997.0,N
1623015995.8,286046998.9,N
1623016015.6,286046999.1,N
1623016035.4,286046999.1,N
1623016055.3,286046999.5,N
1623016075.1,286046996.6,Y
1623016095.9,286046998.2,P
1623016115.7,286047000.7,P
1623016135.5,286046998.3,N
1623016155.4,286046998.9,N
1623016175.2,286046999.2,N
1623016195.1,286047000.8,N
1623016196.0,286047000.8,N
1623016215.8,286046999.7,N
1623016235.6,286047000.2,N
1623016255.5,286047000.8,N
1623016275.3,286046998.3,N
1623016295.1,286046999.4,N
1623016315.9,286046999.3,N
1623016335.7,286046996.7,Y
1623016355.6,286046996.8,P
1623016375.4,286046998.9,N
1623016395.2,286046999.2,N
1623016415.1,286046999.2,N
1623016416.0,286046999.2,N
1623016435.8,286046998.2,N
1623016455.6,286046998.6,N
1623016475.5,286046998.5,N
1623016495.3,286047001.2,N
1623016515.2,286047001.2,N
1623016535.9,286046998.9,N
1623016555.7,286046998.6,N
1623016575.6,286046999.0,N
1623016595.4,286046996.9,N
1623016615.3,286046997.0,N
1623016635.1,286046997.7,N
1623016636.0,286046997.7,N
1623016655.8,286046997.4,N
1623016675.7,286046995.1,Y
1623016695.5,286046997.0,P
1623016715.3,286046996.7,P
1623016735.2,286046997.8,N
1623016755.0,286046997.9,N
1623016755.9,286046997.9,Y
1623016775.8,286046998.1,P
1623016795.6,286047000.6,N
